"read_dt","SO2 (ppb)","flags","PMT voltage (V)","lamp voltage (V)","lamp intensity (Hz)","internal temp (C)","react chamber temp (C)","sample flow (l/min)","pres (mmHg)","SO2 bkg (ppb)","SO2 coefficient"
2014-07-22 00:00:00,2633E-3,5C000004,-0724,0809,12455,016.6,029.8,0.495,732.4,01.19,0.508
2014-07-22 00:01:00,2580E-3,5C000004,-0724,0809,12329,016.8,030.6,0.494,732.3,01.19,0.508
2014-07-22 00:02:00,2629E-3,5C000004,-0724,0809,12315,017.1,031.2,0.495,732.3,01.19,0.508
"read_dt","SO2 (ppb)","flags","PMT voltage (V)","lamp voltage (V)","lamp intensity (Hz)","internal temp (C)","react chamber temp (C)","sample flow (l/min)","pres (mmHg)","SO2 bkg (ppb)","SO2 coefficient"
2014-07-22 00:42:00,2178E-3,5C000004,-0724,0805,12547,017.1,023.8,0.496,732.2,01.19,0.508
2014-07-22 00:43:00,2699E-3,5C000004,-0724,0806,12532,017.3,024.5,0.496,732.1,01.19,0.508
2014-07-22 00:44:00,2554E-3,5C000004,-0724,0807,12409,017.4,025.4,0.496,732.1,01.19,0.508
2014-07-22 00:45:00,2541E-3,5C000004,-0724,0805,12437,017.6,026.4,0.495,732.2,01.19,0.508
2014-07-22 00:46:00,2595E-3,5C000004,-0724,0806,12507,017.8,027.4,0.495,732.2,01.19,0.508
2014-07-22 00:47:00,2535E-3,5C000004,-0724,0807,12338,018.0,028.3,0.494,732.2,01.19,0.508
2014-07-22 00:48:00,2245E-3,5C000004,-0724,0808,12378,018.2,029.3,0.494,732.2,01.19,0.508
2014-07-22 00:49:00,2493E-3,5C000004,-0724,0807,12300,018.4,030.1,0.493,732.1,01.19,0.508
2014-07-22 00:50:00,2415E-3,5C000004,-0724,0808,12422,018.6,031.0,0.493,732.1,01.19,0.508
2014-07-22 00:51:00,2428E-3,5C000004,-0724,0808,12563,018.8,031.9,0.493,732.1,01.19,0.508
2014-07-22 00:52:00,2388E-3,5C000004,-0724,0809,12515,019.0,032.7,0.492,732.0,01.19,0.508
2014-07-22 00:53:00,2308E-3,5C000004,-0724,0808,12448,019.2,033.4,0.492,732.0,01.19,0.508
2014-07-22 00:54:00,2291E-3,5C000004,-0724,0808,12443,019.4,034.2,0.491,732.0,01.19,0.508
2014-07-22 00:55:00,2367E-3,5C000004,-0724,0809,12345,019.6,034.9,0.491,732.0,01.19,0.508
2014-07-22 00:56:00,2472E-3,5C000004,-0724,0809,12508,019.7,035.6,0.490,732.0,01.19,0.508
2014-07-22 00:57:00,2250E-3,5C000004,-0724,0810,12424,019.9,036.2,0.491,732.0,01.19,0.508
2014-07-22 00:58:00,2248E-3,5C000004,-0724,0810,12390,020.1,036.9,0.490,731.9,01.19,0.508
2014-07-22 00:59:00,2320E-3,5C000004,-0724,0810,12375,020.3,037.5,0.490,731.9,01.19,0.508
2014-07-22 01:00:00,2367E-3,5C000004,-0724,0811,12459,020.5,038.1,0.490,731.9,01.19,0.508
2014-07-22 01:01:00,2204E-3,5C000004,-0724,0811,12388,020.6,038.7,0.489,731.8,01.19,0.508
2014-07-22 01:02:00,2259E-3,5C000004,-0724,0810,12434,020.8,039.2,0.489,731.8,01.19,0.508
2014-07-22 01:03:00,2137E-3,5C000004,-0724,0810,12320,021.0,039.8,0.489,731.8,01.19,0.508
2014-07-22 01:04:00,2062E-3,5C000004,-0724,0810,12408,021.2,040.3,0.489,731.7,01.19,0.508
2014-07-22 01:05:00,2086E-3,5C000004,-0724,0812,12492,021.3,040.9,0.488,731.6,01.19,0.508
2014-07-22 01:06:00,2034E-3,5C000004,-0724,0812,12161,021.5,041.4,0.488,731.6,01.19,0.508
2014-07-22 01:07:00,2089E-3,5C000004,-0724,0811,12436,021.6,041.9,0.488,731.6,01.19,0.508
2014-07-22 01:08:00,2205E-3,5C000004,-0724,0813,12468,021.8,042.3,0.487,731.5,01.19,0.508
2014-07-22 01:09:00,2088E-3,5C000004,-0724,0812,12403,021.9,042.8,0.487,731.6,01.19,0.508
2014-07-22 01:10:00,2116E-3,5C000000,-0724,0812,12251,022.0,043.3,0.487,731.6,01.19,0.508
2014-07-22 01:11:00,1899E-3,5C000000,-0724,0812,12427,022.2,043.7,0.487,731.6,01.19,0.508
2014-07-22 01:12:00,1948E-3,5C000000,-0724,0812,12397,022.3,044.1,0.487,731.6,01.19,0.508
2014-07-22 01:13:00,1965E-3,5C000000,-0724,0812,12545,022.5,044.5,0.487,731.6,01.19,0.508
2014-07-22 01:14:00,2023E-3,5C000000,-0724,0812,12494,022.6,045.0,0.487,731.6,01.19,0.508
2014-07-22 01:15:00,2022E-3,5C000000,-0724,0813,12433,022.7,045.3,0.486,731.6,01.19,0.508
2014-07-22 01:16:00,1916E-3,5C000000,-0724,0812,12359,022.8,045.6,0.486,731.6,01.19,0.508
2014-07-22 01:17:00,1886E-3,5C000000,-0724,0813,12276,023.0,045.5,0.486,731.6,01.19,0.508
2014-07-22 01:18:00,1973E-3,5C000000,-0724,0812,12459,023.1,045.5,0.485,731.6,01.19,0.508
2014-07-22 01:19:00,1855E-3,5C000000,-0724,0812,12149,023.1,045.5,0.485,731.6,01.19,0.508
2014-07-22 01:20:00,1966E-3,5C000000,-0724,0811,12359,023.3,045.5,0.485,731.5,01.19,0.508
2014-07-22 01:21:00,1759E-3,5C000000,-0724,0812,12105,023.4,045.5,0.485,731.6,01.19,0.508
2014-07-22 01:22:00,1787E-3,5C000000,-0724,0813,12223,023.5,045.5,0.485,731.6,01.19,0.508
2014-07-22 01:23:00,1889E-3,5C000000,-0724,0813,12328,023.6,045.5,0.485,731.5,01.19,0.508
2014-07-22 01:24:00,1911E-3,5C000000,-0724,0812,12428,023.7,045.5,0.485,731.5,01.19,0.508
2014-07-22 01:25:00,1926E-3,5C000000,-0724,0812,12349,023.8,045.5,0.484,731.5,01.19,0.508
2014-07-22 01:26:00,1837E-3,5C000000,-0724,0812,12413,023.9,045.5,0.484,731.5,01.19,0.508
2014-07-22 01:27:00,1797E-3,5C000000,-0724,0812,12146,024.0,045.4,0.484,731.5,01.19,0.508
2014-07-22 01:28:00,1915E-3,5C000000,-0724,0813,12270,024.1,045.4,0.485,731.5,01.19,0.508
2014-07-22 01:29:00,1832E-3,5C000000,-0724,0813,12166,024.2,045.4,0.484,731.5,01.19,0.508
2014-07-22 01:30:00,1812E-3,5C000000,-0724,0813,12352,024.3,045.5,0.484,731.5,01.19,0.508
2014-07-22 01:31:00,1846E-3,5C000000,-0724,0811,12463,024.4,045.4,0.484,731.5,01.19,0.508
2014-07-22 01:32:00,1889E-3,5C000000,-0724,0812,12194,024.5,045.4,0.484,731.5,01.19,0.508
2014-07-22 01:33:00,1925E-3,5C000000,-0724,0813,12243,024.5,045.4,0.484,731.4,01.19,0.508
2014-07-22 01:34:00,1799E-3,5C000000,-0724,0812,12378,024.6,045.4,0.483,731.4,01.19,0.508
2014-07-22 01:35:00,1913E-3,5C000000,-0724,0812,12302,024.7,045.4,0.483,731.4,01.19,0.508
2014-07-22 01:36:00,1761E-3,5C000000,-0724,0812,12169,024.8,045.4,0.483,731.4,01.19,0.508
2014-07-22 01:37:00,1718E-3,5C000000,-0724,0812,12390,024.9,045.4,0.483,731.4,01.19,0.508
2014-07-22 01:38:00,1742E-3,5C000000,-0724,0811,12222,025.0,045.4,0.483,731.4,01.19,0.508
2014-07-22 01:39:00,1807E-3,5C000000,-0724,0813,12189,025.0,045.4,0.483,731.4,01.19,0.508
2014-07-22 01:40:00,1833E-3,5C000000,-0724,0812,12248,025.1,045.4,0.483,731.4,01.19,0.508
2014-07-22 01:41:00,1783E-3,5C000000,-0724,0813,12308,025.2,045.4,0.483,731.4,01.19,0.508
2014-07-22 01:42:00,1818E-3,5C000000,-0724,0813,12600,025.2,045.4,0.483,731.4,01.19,0.508
2014-07-22 01:43:00,1688E-3,5C000000,-0724,0813,12397,025.3,045.4,0.483,731.4,01.19,0.508
2014-07-22 01:44:00,1745E-3,5C000000,-0724,0812,12284,025.4,045.4,0.482,731.4,01.19,0.508
2014-07-22 01:45:00,1751E-3,5C000000,-0724,0813,12498,025.5,045.4,0.482,731.4,01.19,0.508
2014-07-22 01:46:00,1815E-3,5C000000,-0724,0813,12316,025.6,045.4,0.483,731.4,01.19,0.508
2014-07-22 01:47:00,1874E-3,5C000000,-0724,0813,12142,025.6,045.4,0.483,731.4,01.19,0.508
2014-07-22 01:48:00,1852E-3,5C000000,-0724,0812,12506,025.7,045.5,0.482,731.3,01.19,0.508
2014-07-22 01:49:00,1732E-3,5C000000,-0724,0813,12199,025.8,045.4,0.482,731.3,01.19,0.508
2014-07-22 01:50:00,1873E-3,5C000000,-0724,0812,12394,025.8,045.4,0.482,731.3,01.19,0.508
2014-07-22 01:51:00,1694E-3,5C000000,-0724,0813,12298,025.9,045.4,0.482,731.3,01.19,0.508
2014-07-22 01:52:00,1939E-3,5C000000,-0724,0812,12482,025.9,045.4,0.482,731.3,01.19,0.508
2014-07-22 01:53:00,1815E-3,5C000000,-0724,0813,12520,026.0,045.4,0.482,731.3,01.19,0.508
2014-07-22 01:54:00,1874E-3,5C000000,-0724,0812,12107,026.1,045.4,0.482,731.2,01.19,0.508
2014-07-22 01:55:00,1755E-3,5C000000,-0724,0812,12299,026.1,045.4,0.482,731.2,01.19,0.508
2014-07-22 01:56:00,1916E-3,5C000000,-0724,0812,12241,026.2,045.5,0.482,731.2,01.19,0.508
2014-07-22 01:57:00,1789E-3,5C000000,-0724,0813,12456,026.2,045.4,0.482,731.2,01.19,0.508
2014-07-22 01:58:00,1761E-3,5C000000,-0724,0813,12439,026.3,045.4,0.481,731.2,01.19,0.508
2014-07-22 01:59:00,1753E-3,5C000000,-0724,0813,12482,026.3,045.4,0.481,731.2,01.19,0.508
2014-07-22 02:00:00,1738E-3,5C000000,-0724,0813,12473,026.4,045.4,0.481,731.1,01.19,0.508
2014-07-22 02:01:00,1762E-3,5C000000,-0724,0813,12392,026.5,045.4,0.481,731.1,01.19,0.508
2014-07-22 02:02:00,1829E-3,5C000000,-0724,0813,12259,026.5,045.4,0.481,731.1,01.19,0.508
2014-07-22 02:03:00,1897E-3,5C000000,-0724,0814,12326,026.6,045.4,0.481,731.1,01.19,0.508
2014-07-22 02:04:00,1731E-3,5C000000,-0724,0813,12306,026.6,045.4,0.481,731.1,01.19,0.508
2014-07-22 02:05:00,1749E-3,5C000000,-0724,0813,12451,026.7,045.4,0.481,731.1,01.19,0.508
2014-07-22 02:06:00,1820E-3,5C000000,-0724,0813,12356,026.7,045.5,0.480,731.1,01.19,0.508
2014-07-22 02:07:00,1695E-3,5C000000,-0724,0813,12402,026.8,045.4,0.480,731.1,01.19,0.508
2014-07-22 02:08:00,1801E-3,5C000000,-0724,0812,12411,026.8,045.5,0.480,731.1,01.19,0.508
2014-07-22 02:09:00,1780E-3,5C000000,-0724,0813,12362,026.9,045.4,0.480,731.1,01.19,0.508
2014-07-22 02:10:00,1719E-3,5C000000,-0724,0813,12387,026.9,045.5,0.480,731.1,01.19,0.508
2014-07-22 02:11:00,1849E-3,5C000000,-0724,0813,12368,026.9,045.4,0.480,731.1,01.19,0.508
2014-07-22 02:12:00,1845E-3,5C000000,-0724,0813,12250,027.0,045.4,0.480,731.0,01.19,0.508
2014-07-22 02:13:00,1851E-3,5C000000,-0724,0812,12529,027.0,045.5,0.480,731.0,01.19,0.508
2014-07-22 02:14:00,1763E-3,5C000000,-0724,0813,12175,027.1,045.5,0.480,731.0,01.19,0.508
2014-07-22 02:15:00,1901E-3,5C000000,-0724,0813,12431,027.1,045.5,0.480,731.0,01.19,0.508
2014-07-22 02:16:00,1772E-3,5C000000,-0724,0813,12496,027.2,045.5,0.480,731.0,01.19,0.508
2014-07-22 02:17:00,1826E-3,5C000000,-0724,0813,12506,027.2,045.5,0.480,731.0,01.19,0.508
2014-07-22 02:18:00,1737E-3,5C000000,-0724,0813,12232,027.2,045.5,0.480,731.0,01.19,0.508
2014-07-22 02:19:00,1681E-3,5C000000,-0724,0813,12236,027.3,045.5,0.480,731.0,01.19,0.508
2014-07-22 02:20:00,1731E-3,5C000000,-0724,0813,12236,027.3,045.5,0.480,731.0,01.19,0.508
2014-07-22 02:21:00,1836E-3,5C000000,-0724,0813,12538,027.4,045.4,0.480,731.0,01.19,0.508
2014-07-22 02:22:00,1809E-3,5C000000,-0724,0813,12535,027.4,045.5,0.480,730.9,01.19,0.508
2014-07-22 02:23:00,1822E-3,5C000000,-0724,0813,12416,027.4,045.5,0.480,730.9,01.19,0.508
2014-07-22 02:24:00,1911E-3,5C000000,-0724,0814,12296,027.5,045.5,0.480,730.9,01.19,0.508
2014-07-22 02:25:00,1778E-3,5C000000,-0724,0814,12322,027.5,045.5,0.479,730.9,01.19,0.508
2014-07-22 02:26:00,1808E-3,5C000000,-0724,0814,12345,027.5,045.5,0.479,730.9,01.19,0.508
2014-07-22 02:27:00,1733E-3,5C000000,-0724,0813,12512,027.6,045.5,0.479,730.9,01.19,0.508
2014-07-22 02:28:00,1791E-3,5C000000,-0724,0813,12222,027.6,045.5,0.479,730.9,01.19,0.508
2014-07-22 02:29:00,1946E-3,5C000000,-0724,0814,12433,027.6,045.5,0.479,730.8,01.19,0.508
2014-07-22 02:30:00,1792E-3,5C000000,-0724,0813,12478,027.7,045.5,0.479,730.9,01.19,0.508
2014-07-22 02:31:00,1810E-3,5C000000,-0724,0813,12343,027.7,045.5,0.479,730.9,01.19,0.508
2014-07-22 02:32:00,1843E-3,5C000000,-0724,0814,12340,027.8,045.5,0.479,730.8,01.19,0.508
2014-07-22 02:33:00,1872E-3,5C000000,-0724,0814,12434,027.8,045.5,0.479,730.8,01.19,0.508
2014-07-22 02:34:00,1829E-3,5C000000,-0724,0813,12448,027.8,045.5,0.479,730.8,01.19,0.508
2014-07-22 02:35:00,1876E-3,5C000000,-0724,0815,12275,027.8,045.5,0.479,730.8,01.19,0.508
2014-07-22 02:36:00,1737E-3,5C000000,-0724,0814,12291,027.9,045.5,0.479,730.8,01.19,0.508
2014-07-22 02:37:00,1658E-3,5C000000,-0724,0814,12407,027.9,045.5,0.479,730.8,01.19,0.508
2014-07-22 02:38:00,1802E-3,5C000000,-0724,0813,12364,027.9,045.5,0.479,730.8,01.19,0.508
2014-07-22 02:39:00,1788E-3,5C000000,-0724,0815,12343,028.0,045.5,0.479,730.7,01.19,0.508
2014-07-22 02:40:00,1834E-3,5C000000,-0724,0813,12222,028.0,045.5,0.479,730.7,01.19,0.508
2014-07-22 02:41:00,1891E-3,5C000000,-0724,0813,12191,028.0,045.5,0.479,730.7,01.19,0.508
2014-07-22 02:42:00,1698E-3,5C000000,-0724,0815,12221,028.0,045.5,0.479,730.7,01.19,0.508
2014-07-22 02:43:00,1802E-3,5C000000,-0724,0814,12407,028.1,045.5,0.479,730.7,01.19,0.508
2014-07-22 02:44:00,1787E-3,5C000000,-0724,0813,12295,028.1,045.5,0.478,730.7,01.19,0.508
2014-07-22 02:45:00,1815E-3,5C000000,-0724,0813,12352,028.1,045.5,0.479,730.7,01.19,0.508
2014-07-22 02:46:00,1879E-3,5C000000,-0724,0815,12429,028.1,045.5,0.479,730.7,01.19,0.508
2014-07-22 02:47:00,1765E-3,5C000000,-0724,0815,12474,028.2,045.5,0.479,730.7,01.19,0.508
2014-07-22 02:48:00,1841E-3,5C000000,-0724,0814,12472,028.2,045.5,0.478,730.7,01.19,0.508
2014-07-22 02:49:00,1869E-3,5C000000,-0724,0814,12439,028.2,045.5,0.478,730.7,01.19,0.508
2014-07-22 02:50:00,1705E-3,5C000000,-0724,0814,12573,028.2,045.5,0.479,730.7,01.19,0.508
2014-07-22 02:51:00,1803E-3,5C000000,-0724,0814,12409,028.3,045.5,0.479,730.7,01.19,0.508
2014-07-22 02:52:00,1764E-3,5C000000,-0724,0813,12228,028.3,045.5,0.479,730.7,01.19,0.508
2014-07-22 02:53:00,1830E-3,5C000000,-0724,0814,12459,028.3,045.5,0.478,730.6,01.19,0.508
2014-07-22 02:54:00,1832E-3,5C000000,-0724,0814,12180,028.3,045.5,0.478,730.6,01.19,0.508
2014-07-22 02:55:00,1827E-3,5C000000,-0724,0814,12226,028.4,045.5,0.478,730.6,01.19,0.508
2014-07-22 02:56:00,1773E-3,5C000000,-0724,0815,12322,028.4,045.5,0.479,730.6,01.19,0.508
2014-07-22 02:57:00,1662E-3,5C000000,-0724,0815,12372,028.4,045.5,0.478,730.6,01.19,0.508
2014-07-22 02:58:00,1723E-3,5C000000,-0724,0814,12326,028.5,045.5,0.478,730.6,01.19,0.508
2014-07-22 02:59:00,1858E-3,5C000000,-0724,0814,12230,028.5,045.5,0.478,730.6,01.19,0.508
2014-07-22 03:00:00,1837E-3,5C000000,-0724,0814,12343,028.5,045.5,0.478,730.6,01.19,0.508
2014-07-22 03:01:00,1658E-3,5C000000,-0724,0815,12390,028.5,045.5,0.478,730.6,01.19,0.508
2014-07-22 03:02:00,1864E-3,5C000000,-0724,0814,12315,028.5,045.5,0.478,730.6,01.19,0.508
2014-07-22 03:03:00,1878E-3,5C000000,-0724,0814,12310,028.5,045.5,0.478,730.6,01.19,0.508
2014-07-22 03:04:00,1807E-3,5C000000,-0724,0814,12282,028.5,045.5,0.478,730.6,01.19,0.508
2014-07-22 03:05:00,1773E-3,5C000000,-0724,0814,12358,028.5,045.5,0.478,730.6,01.19,0.508
2014-07-22 03:06:00,1758E-3,5C000000,-0724,0814,12195,028.5,045.5,0.478,730.6,01.19,0.508
2014-07-22 03:07:00,1885E-3,5C000000,-0724,0815,12453,028.5,045.5,0.478,730.6,01.19,0.508
2014-07-22 03:08:00,1768E-3,5C000000,-0724,0814,12382,028.4,045.5,0.478,730.6,01.19,0.508
2014-07-22 03:09:00,1670E-3,5C000000,-0724,0815,12398,028.4,045.5,0.478,730.6,01.19,0.508
2014-07-22 03:10:00,1754E-3,5C000000,-0724,0815,12213,028.4,045.5,0.478,730.6,01.19,0.508
2014-07-22 03:11:00,1906E-3,5C000000,-0724,0815,12364,028.4,045.5,0.478,730.6,01.19,0.508
2014-07-22 03:12:00,1739E-3,5C000000,-0724,0815,12240,028.3,045.5,0.478,730.6,01.19,0.508
2014-07-22 03:13:00,1757E-3,5C000000,-0724,0816,12419,028.3,045.5,0.478,730.7,01.19,0.508
2014-07-22 03:14:00,1770E-3,5C000000,-0724,0815,12392,028.3,045.5,0.478,730.7,01.19,0.508
2014-07-22 03:15:00,1997E-3,5C000000,-0724,0815,12205,028.3,045.5,0.478,730.7,01.19,0.508
2014-07-22 03:16:00,1830E-3,5C000000,-0724,0815,12291,028.3,045.5,0.478,730.7,01.19,0.508
2014-07-22 03:17:00,1754E-3,5C000000,-0724,0815,11869,028.2,045.5,0.478,730.7,01.19,0.508
2014-07-22 03:18:00,1893E-3,5C000000,-0724,0815,12282,028.2,045.5,0.478,730.7,01.19,0.508
2014-07-22 03:19:00,1847E-3,5C000000,-0724,0815,12333,028.2,045.5,0.478,730.7,01.19,0.508
2014-07-22 03:20:00,1859E-3,5C000000,-0724,0815,12363,028.2,045.5,0.478,730.7,01.19,0.508
2014-07-22 03:21:00,1766E-3,5C000000,-0724,0816,12239,028.2,045.5,0.477,730.7,01.19,0.508
2014-07-22 03:22:00,1855E-3,5C000000,-0724,0815,12447,028.1,045.5,0.478,730.7,01.19,0.508
2014-07-22 03:23:00,1869E-3,5C000000,-0724,0815,12298,028.1,045.5,0.477,730.7,01.19,0.508
2014-07-22 03:24:00,1859E-3,5C000000,-0724,0815,12357,028.1,045.5,0.478,730.7,01.19,0.508
2014-07-22 03:25:00,1849E-3,5C000000,-0724,0815,12310,028.1,045.5,0.477,730.7,01.19,0.508
2014-07-22 03:26:00,1723E-3,5C000000,-0724,0815,12331,028.1,045.5,0.478,730.7,01.19,0.508
2014-07-22 03:27:00,1821E-3,5C000000,-0724,0816,12436,028.0,045.5,0.478,730.7,01.19,0.508
2014-07-22 03:28:00,1761E-3,5C000000,-0724,0815,12521,028.0,045.5,0.478,730.7,01.19,0.508
2014-07-22 03:29:00,1766E-3,5C000000,-0724,0816,12367,028.0,045.5,0.478,730.7,01.19,0.508
2014-07-22 03:30:00,1861E-3,5C000000,-0724,0816,12172,028.0,045.5,0.477,730.7,01.19,0.508
2014-07-22 03:31:00,1882E-3,5C000000,-0724,0815,12296,027.9,045.5,0.478,730.7,01.19,0.508
2014-07-22 03:32:00,1730E-3,5C000000,-0724,0815,12452,027.9,045.5,0.477,730.7,01.19,0.508
2014-07-22 03:33:00,1656E-3,5C000000,-0724,0815,12265,027.9,045.5,0.478,730.7,01.19,0.508
2014-07-22 03:34:00,1811E-3,5C000000,-0724,0816,12391,027.8,045.5,0.478,730.7,01.19,0.508
2014-07-22 03:35:00,1715E-3,5C000000,-0724,0816,12354,027.8,045.5,0.478,730.7,01.19,0.508
2014-07-22 03:36:00,1856E-3,5C000000,-0724,0816,12354,027.7,045.5,0.478,730.7,01.19,0.508
2014-07-22 03:37:00,1703E-3,5C000000,-0724,0817,12316,027.7,045.5,0.478,730.7,01.19,0.508
2014-07-22 03:38:00,1817E-3,5C000000,-0724,0817,12393,027.7,045.5,0.478,730.7,01.19,0.508
2014-07-22 03:39:00,1967E-3,5C000000,-0724,0816,12400,027.6,045.5,0.478,730.7,01.19,0.508
2014-07-22 03:40:00,1658E-3,5C000000,-0724,0816,12229,027.5,045.5,0.479,730.7,01.19,0.508
2014-07-22 03:41:00,1793E-3,5C000000,-0724,0816,12408,027.5,045.5,0.479,730.7,01.19,0.508
2014-07-22 03:42:00,1831E-3,5C000000,-0724,0816,12333,027.5,045.5,0.478,730.7,01.19,0.508
2014-07-22 03:43:00,1754E-3,5C000000,-0724,0817,12467,027.4,045.5,0.479,730.6,01.19,0.508
2014-07-22 03:44:00,1808E-3,5C000000,-0724,0816,12244,027.4,045.5,0.479,730.6,01.19,0.508
2014-07-22 03:45:00,1775E-3,5C000000,-0724,0816,12527,027.3,045.5,0.479,730.6,01.19,0.508
2014-07-22 03:46:00,1843E-3,5C000000,-0724,0817,12455,027.3,045.5,0.478,730.6,01.19,0.508
2014-07-22 03:47:00,1716E-3,5C000000,-0724,0817,12361,027.2,045.5,0.479,730.6,01.19,0.508
2014-07-22 03:48:00,1739E-3,5C000000,-0724,0816,12417,027.2,045.5,0.479,730.6,01.19,0.508
2014-07-22 03:49:00,1820E-3,5C000000,-0724,0816,12485,027.2,045.5,0.479,730.6,01.19,0.508
2014-07-22 03:50:00,1771E-3,5C000000,-0724,0816,12313,027.1,045.5,0.479,730.6,01.19,0.508
2014-07-22 03:51:00,1735E-3,5C000000,-0724,0817,12531,027.1,045.5,0.479,730.6,01.19,0.508
2014-07-22 03:52:00,1788E-3,5C000000,-0724,0816,12412,027.1,045.5,0.479,730.6,01.19,0.508
2014-07-22 03:53:00,1720E-3,5C000000,-0724,0817,12220,027.0,045.5,0.480,730.6,01.19,0.508
2014-07-22 03:54:00,1839E-3,5C000000,-0724,0816,12277,027.0,045.5,0.479,730.6,01.19,0.508
2014-07-22 03:55:00,1833E-3,5C000000,-0724,0816,12165,027.0,045.5,0.479,730.6,01.19,0.508
2014-07-22 03:56:00,1820E-3,5C000000,-0724,0817,12266,027.0,045.4,0.479,730.6,01.19,0.508
2014-07-22 03:57:00,1654E-3,5C000000,-0724,0816,12207,027.0,045.5,0.479,730.6,01.19,0.508
2014-07-22 03:58:00,1865E-3,5C000000,-0724,0817,12406,026.9,045.5,0.480,730.5,01.19,0.508
2014-07-22 03:59:00,1842E-3,5C000000,-0724,0817,12444,026.9,045.5,0.479,730.5,01.19,0.508
2014-07-22 04:00:00,1832E-3,5C000000,-0724,0817,12270,026.9,045.5,0.480,730.5,01.19,0.508
2014-07-22 04:01:00,1795E-3,5C000000,-0724,0817,12206,026.9,045.5,0.479,730.5,01.19,0.508
2014-07-22 04:02:00,1790E-3,5C000000,-0724,0817,12459,026.9,045.5,0.480,730.5,01.19,0.508
2014-07-22 04:03:00,1835E-3,5C000000,-0724,0817,12491,026.9,045.5,0.479,730.4,01.19,0.508
2014-07-22 04:04:00,1769E-3,5C000000,-0724,0817,12338,026.8,045.5,0.480,730.4,01.19,0.508
2014-07-22 04:05:00,1710E-3,5C000000,-0724,0816,12047,026.8,045.5,0.479,730.4,01.19,0.508
2014-07-22 04:06:00,1809E-3,5C000000,-0724,0817,12401,026.8,045.4,0.479,730.4,01.19,0.508
2014-07-22 04:07:00,1772E-3,5C000000,-0724,0817,12266,026.8,045.4,0.480,730.4,01.19,0.508
2014-07-22 04:08:00,1747E-3,5C000000,-0724,0818,12149,026.8,045.5,0.479,730.4,01.19,0.508
2014-07-22 04:09:00,1753E-3,5C000000,-0724,0817,12436,026.8,045.4,0.480,730.4,01.19,0.508
2014-07-22 04:10:00,1833E-3,5C000000,-0724,0817,12278,026.8,045.5,0.480,730.4,01.19,0.508
2014-07-22 04:11:00,1867E-3,5C000000,-0724,0817,12234,026.8,045.4,0.479,730.4,01.19,0.508
2014-07-22 04:12:00,1647E-3,5C000000,-0724,0817,12286,026.8,045.5,0.480,730.4,01.19,0.508
2014-07-22 04:13:00,1856E-3,5C000000,-0724,0817,12291,026.8,045.5,0.479,730.4,01.19,0.508
2014-07-22 04:14:00,2036E-3,5C000000,-0724,0818,12224,026.7,045.5,0.479,730.4,01.19,0.508
2014-07-22 04:15:00,1821E-3,5C000000,-0724,0818,12255,026.7,045.4,0.480,730.5,01.19,0.508
2014-07-22 04:16:00,1692E-3,5C000000,-0724,0817,12451,026.7,045.5,0.479,730.5,01.19,0.508
2014-07-22 04:17:00,1860E-3,5C000000,-0724,0818,12235,026.8,045.5,0.480,730.5,01.19,0.508
2014-07-22 04:18:00,1720E-3,5C000000,-0724,0818,12321,026.8,045.5,0.480,730.5,01.19,0.508
2014-07-22 04:19:00,1753E-3,5C000000,-0724,0817,12014,026.7,045.4,0.479,730.5,01.19,0.508
2014-07-22 04:20:00,1798E-3,5C000000,-0724,0817,12299,026.7,045.5,0.480,730.5,01.19,0.508
2014-07-22 04:21:00,1875E-3,5C000000,-0724,0817,12153,026.7,045.4,0.480,730.5,01.19,0.508
2014-07-22 04:22:00,1814E-3,5C000000,-0724,0817,12437,026.8,045.5,0.479,730.5,01.19,0.508
2014-07-22 04:23:00,1867E-3,5C000000,-0724,0817,12132,026.7,045.5,0.480,730.5,01.19,0.508
2014-07-22 04:24:00,1842E-3,5C000000,-0724,0817,12330,026.7,045.5,0.480,730.5,01.19,0.508
2014-07-22 04:25:00,1631E-3,5C000000,-0724,0818,12237,026.8,045.5,0.479,730.5,01.19,0.508
2014-07-22 04:26:00,1719E-3,5C000000,-0724,0818,12254,026.8,045.4,0.480,730.5,01.19,0.508
2014-07-22 04:27:00,1850E-3,5C000000,-0724,0819,12382,026.8,045.4,0.480,730.5,01.19,0.508
2014-07-22 04:28:00,1797E-3,5C000000,-0724,0818,12507,026.8,045.5,0.479,730.5,01.19,0.508
2014-07-22 04:29:00,1753E-3,5C000000,-0724,0819,12351,026.8,045.4,0.479,730.5,01.19,0.508
2014-07-22 04:30:00,1726E-3,5C000000,-0724,0818,12405,026.8,045.4,0.480,730.5,01.19,0.508
2014-07-22 04:31:00,1771E-3,5C000000,-0724,0818,12435,026.8,045.4,0.480,730.5,01.19,0.508
2014-07-22 04:32:00,1706E-3,5C000000,-0724,0819,12276,026.9,045.5,0.479,730.5,01.19,0.508
2014-07-22 04:33:00,1790E-3,5C000000,-0724,0818,12242,026.8,045.5,0.479,730.5,01.19,0.508
2014-07-22 04:34:00,1764E-3,5C000000,-0724,0818,12350,026.8,045.5,0.480,730.5,01.19,0.508
2014-07-22 04:35:00,1873E-3,5C000000,-0724,0818,12501,026.8,045.4,0.479,730.5,01.19,0.508
2014-07-22 04:36:00,1968E-3,5C000000,-0724,0818,12321,026.8,045.5,0.480,730.5,01.19,0.508
2014-07-22 04:37:00,1756E-3,5C000000,-0724,0818,12319,026.7,045.4,0.480,730.5,01.19,0.508
2014-07-22 04:38:00,1880E-3,5C000000,-0724,0819,12181,026.7,045.4,0.480,730.5,01.19,0.508
2014-07-22 04:39:00,1855E-3,5C000000,-0724,0818,12483,026.7,045.5,0.480,730.5,01.19,0.508
2014-07-22 04:40:00,1766E-3,5C000000,-0724,0817,12350,026.7,045.4,0.480,730.4,01.19,0.508
2014-07-22 04:41:00,1679E-3,5C000000,-0724,0819,12371,026.7,045.5,0.480,730.4,01.19,0.508
2014-07-22 04:42:00,1763E-3,5C000000,-0724,0819,12377,026.7,045.4,0.480,730.4,01.19,0.508
2014-07-22 04:43:00,1755E-3,5C000000,-0724,0819,12243,026.7,045.5,0.480,730.4,01.19,0.508
2014-07-22 04:44:00,1899E-3,5C000000,-0724,0820,12146,026.6,045.5,0.480,730.4,01.19,0.508
2014-07-22 04:45:00,1840E-3,5C000000,-0724,0819,12478,026.6,045.5,0.480,730.4,01.19,0.508
2014-07-22 04:46:00,1627E-3,5C000000,-0724,0819,12360,026.6,045.5,0.480,730.4,01.19,0.508
2014-07-22 04:47:00,1870E-3,5C000000,-0724,0819,12242,026.6,045.5,0.480,730.4,01.19,0.508
2014-07-22 04:48:00,1738E-3,5C000000,-0724,0819,12329,026.6,045.4,0.480,730.4,01.19,0.508
2014-07-22 04:49:00,1776E-3,5C000000,-0724,0819,12422,026.6,045.4,0.480,730.4,01.19,0.508
2014-07-22 04:50:00,1786E-3,5C000000,-0724,0820,12221,026.6,045.4,0.480,730.4,01.19,0.508
2014-07-22 04:51:00,1774E-3,5C000000,-0724,0820,12213,026.6,045.4,0.480,730.4,01.19,0.508
2014-07-22 04:52:00,1702E-3,5C000000,-0724,0819,12308,026.6,045.5,0.480,730.4,01.19,0.508
2014-07-22 04:53:00,1762E-3,5C000000,-0724,0819,12376,026.6,045.5,0.480,730.4,01.19,0.508
2014-07-22 04:54:00,1697E-3,5C000000,-0724,0819,12459,026.6,045.5,0.480,730.4,01.19,0.508
2014-07-22 04:55:00,1845E-3,5C000000,-0724,0819,12427,026.6,045.4,0.480,730.4,01.19,0.508
2014-07-22 04:56:00,1667E-3,5C000000,-0724,0820,12304,026.6,045.5,0.480,730.4,01.19,0.508
2014-07-22 04:57:00,1816E-3,5C000000,-0724,0819,12409,026.6,045.5,0.480,730.4,01.19,0.508